Regional Weather Roundup
Issued by NWS

Home | Current Version | Previous Version | Graphics & Text | Print | Product List | Glossary On
Versions: 1 2 3 4 5 6 7 8 9 10 11 12 13 14 15 16 17 18 19 20 21 22 23 24 25 26 27 28 29 30 31 32 33 34 35 36 37 38 39 40 41 42 43 44 45 46 47 48 49 50
833
ASUS45 KABQ 260210
RWRNM
NEW MEXICO REGIONAL WEATHER ROUNDUP
NATIONAL WEATHER SERVICE ALBUQUERQUE NM
800 PM MDT TUE JUL 25 2017

NOTE: "FAIR" MEANS FEW OR NO CLOUDS BELOW 12,000 FEET AGL WITH NO
       SIGNIFICANT WEATHER OR OBSTRUCTIONS TO VISION.

      THIS PRODUCT IS RELEASED AS TWO VERSIONS.  ONE VERSION NEAR
      THE TOP OF THE HOUR CONTAINING PRELIMINARY DATA FROM ALBUQUERQUE
      AND OTHER STATIONS.  A FINAL VERSION WITH ADDITIONAL DATA IS
      ISSUED ABOUT 10 MINUTES AFTER THE HOUR.

NMZ501-503-504-510>518-260300-
NORTHWEST PLATEAU/NORTHCENTRAL MOUNTAINS

CITY           SKY/WX    TMP DP  RH WIND       PRES   REMARKS
FARMINGTON     TSTM      71  61  70 NW17G29   30.17R
LOS ALAMOS     MOCLDY    69  57  65 E3        30.32S
SANTA FE       FAIR      78  55  44 N5        30.24S
TAOS           FAIR      70  54  56 S6        30.32S
ANGEL FIRE     FAIR      65  50  57 SW3       30.41F

$$
NMZ402-403-502-505>509-260300-
WESTCENTRAL MOUNTAINS/SOUTHWEST MOUNTAINS

CITY           SKY/WX    TMP DP  RH WIND       PRES   REMARKS
GALLUP         FAIR      76  53  44 SW9       30.25R
GRANTS         FAIR      71  56  60 SE9       30.30R
SILVER CITY    FAIR      81  56  41 W9        30.20R

$$
NMZ407-409-411-412-260300-
SOUTHERN DESERTS

CITY           SKY/WX    TMP DP  RH WIND       PRES   REMARKS
DEMING         FAIR      82  63  52 SW8       30.12R
LAS CRUCES     CLOUDY    86  60  40 SW16G24   30.15R THUNDER
HOLLOMAN AFB   FAIR      91  55  29 S10       30.08S
ALAMOGORDO     FAIR      86  54  32 S12G17    30.08S
T OR C         FAIR      88  35  15 S8        30.12R

$$
NMZ519>523-260300-
CENTRAL VALLEYS/CENTRAL HIGHLANDS

CITY           SKY/WX    TMP DP  RH WIND       PRES   REMARKS
ALBUQUERQUE    MOCLDY    84  54  35 W5        30.18R
DOUBLE EAGLE   MOCLDY    77  61  57 NW8       30.23
MORIARTY ARPT  FAIR      79  55  43 W10       30.25R
CLINES CORNERS FAIR      73  55  53 NW8       30.30R
BELEN          FAIR      82  55  39 NW10      30.17R
SOCORRO        FAIR      82  61  48 CALM      30.14S

$$
NMZ524>526-539-540-260300-
SOUTHCENTRAL MOUNTAINS

CITY           SKY/WX    TMP DP  RH WIND       PRES   REMARKS
RUIDOSO        FAIR      73  55  53 CALM      30.32S

$$
NMZ527>531-260300-
NORTHEAST HIGHLANDS/NORTHEAST PLAINS

CITY           SKY/WX    TMP DP  RH WIND       PRES   REMARKS
LAS VEGAS      FAIR      70  57  63 SE9       30.28R
RATON          FAIR      79  56  45 S10       30.18R
CLAYTON        FAIR      84  55  36 S12       30.10R

$$
NMZ532>537-260300-
EASTCENTRAL PLAINS

CITY           SKY/WX    TMP DP  RH WIND       PRES   REMARKS
SANTA ROSA     FAIR      82  59  46 SE7       30.10R
TUCUMCARI      FAIR      90  57  32 S16G25    30.02R
CANNON AFB     FAIR      85  56  36 S10       30.12R
CLOVIS AIRPORT FAIR      84  58  40 S12       30.11R

$$
NMZ028-029-538-260300-
SOUTHEAST PLAINS

CITY           SKY/WX    TMP DP  RH WIND       PRES   REMARKS
ROSWELL        FAIR      93  54  26 S13       30.03R
ARTESIA        FAIR      91  59  33 S16G22    30.04R
CARLSBAD       FAIR      85  66  53 SW9       30.02R
HOBBS          FAIR      88  54  31 SE12      30.09R


$$




USA.gov is the U.S. government's official web portal to all federal, state and local government web resources and services.